Wind_Speed
6 13 16 16 15 11 10 7 4 3 1 2 3 5 5 7 10 12 13 14 14 14 14 14 15 16 17 16 15 16 16 16 15 16 17 16 18 18 15 19 16 11 6
9 14 16 16 14 12 9 7 4 4 3 4 3 5 7 9 12 15 16 17 17 18 18 17 17 18 17 18 19 19 19 20 17 15 16 17 18 19 19 21 20 16 9
12 13 16 15 12 9 7 6 5 4 3 3 4 8 11 13 15 16 18 19 19 20 20 20 18 17 17 20 22 22 21 19 18 14 14 16 21 16 16 18 24 18 10
10 11 13 14 11 8 6 6 5 3 5 6 9 10 15 15 16 17 19 20 20 21 20 20 19 18 20 22 23 24 23 19 17 16 14 17 20 13 16 19 21 26 18
9 12 12 11 9 7 6 5 4 5 8 9 12 13 14 13 13 14 15 17 19 18 17 17 18 19 20 21 20 19 18 18 17 14 14 18 21 27 15 15 18 14 20
10 12 8 6 5 5 5 5 7 9 9 11 11 10 10 10 10 12 13 15 16 16 14 14 15 15 15 15 15 15 17 16 15 15 13 15 20 23 11 12 12 9 13
9 8 7 7 5 5 7 9 9 9 9 7 7 10 11 9 9 12 14 15 16 15 14 14 16 17 16 16 17 17 16 15 15 16 17 24 19 22 5 15 22 16 12
5 6 6 4 7 9 10 7 5 4 3 6 9 10 11 10 11 13 15 17 17 18 19 21 21 21 20 19 18 19 18 16 15 16 19 24 27 17 11 15 21 19 18
4 5 6 8 11 7 3 2 3 3 5 8 10 10 10 11 14 15 18 19 20 22 22 23 24 25 24 23 22 21 20 21 20 20 23 20 21 18 17 19 19 16 18
6 8 9 10 4 4 4 5 6 5 6 7 8 9 11 13 15 17 18 20 22 23 24 26 27 27 27 26 25 25 25 24 22 23 27 22 20 17 19 20 18 17 20
9 8 11 6 4 4 4 5 4 5 7 8 10 11 13 13 15 16 16 19 22 24 26 27 28 30 30 30 30 28 27 29 28 27 30 25 23 22 19 20 20 19 20
11 8 7 4 2 1 5 3 3 4 4 5 7 10 14 15 16 19 21 21 22 23 24 24 27 28 27 28 31 31 30 30 29 31 33 28 26 25 24 21 21 22 22
6 4 8 6 2 1 6 5 4 6 8 7 8 11 14 16 19 21 24 25 27 28 28 27 26 27 26 23 23 25 27 27 28 29 32 28 26 28 28 27 24 24 24
8 9 16 7 6 4 3 1 4 6 8 11 14 16 18 21 22 22 22 25 26 24 24 25 26 27 26 24 23 21 22 23 24 27 31 28 25 27 27 27 29 28 26
13 13 17 12 10 6 3 5 6 9 11 15 19 21 21 23 23 24 23 23 21 20 21 23 25 26 28 28 28 26 26 26 25 25 31 32 30 29 28 27 27 28 28
13 18 21 16 12 9 7 8 11 13 16 18 21 21 21 22 22 21 21 21 20 20 24 27 28 28 28 27 27 28 27 26 28 32 31 34 32 32 31 32 31 30 29
18 18 22 23 10 10 11 12 16 17 20 22 24 24 23 22 22 24 24 26 27 27 29 31 31 31 31 32 34 36 37 35 31 28 30 32 35 36 34 32 33 33 32
17 16 29 18 16 13 18 16 19 21 22 23 26 22 26 29 31 30 29 29 28 28 29 31 30 30 31 31 31 33 36 38 39 41 42 38 39 38 37 38 36 34 33
6 16 9 23 23 22 22 19 22 23 23 24 23 23 32 35 34 35 34 35 36 34 36 35 33 34 33 33 34 34 33 35 38 41 44 43 45 48 48 42 40 38 36
17 20 17 25 22 22 29 24 21 22 24 31 32 28 38 33 38 37 39 41 40 41 42 37 35 37 35 36 36 37 35 34 34 35 38 39 43 44 44 49 46 44 39
21 22 19 22 24 22 27 26 26 28 33 33 32 36 36 37 42 38 40 43 39 44 43 42 41 38 39 37 38 39 39 37 37 36 37 38 42 43 42 40 46 49 45
19 19 18 22 23 22 29 31 28 38 36 35 34 36 41 46 47 49 47 48 47 40 42 40 39 40 41 40 41 44 47 46 43 40 35 34 39 42 47 50 50 45 46
16 16 20 23 23 24 31 34 39 37 37 37 39 48 52 55 52 37 42 42 42 40 38 40 41 43 47 45 46 47 47 49 51 49 47 44 40 36 39 46 44 45 43
11 15 18 22 23 27 33 34 36 38 39 50 49 40 38 38 39 40 38 38 39 43 42 44 46 49 50 52 53 52 51 53 57 59 54 52 47 43 46 40 40 35 43
17 19 23 28 30 32 34 36 40 46 46 46 44 46 43 45 42 39 41 43 46 50 51 50 52 53 55 56 55 55 53 48 46 48 56 58 55 51 51 51 41 47 45
23 25 25 26 30 34 37 39 41 40 40 45 50 53 51 48 46 45 48 51 52 54 54 55 56 56 55 53 46 43 42 44 46 46 48 51 53 53 53 56 55 53 70
Wind_Direction
151 167 173 172 168 164 158 166 179 200 233 327 334 328 317 309 301 294 290 284 284 287 288 286 282 288 294 290 289 289 286 287 287 292 293 281 270 276 266 273 273 278 264
157 176 176 176 172 172 181 199 217 245 275 346 356 299 287 281 287 288 287 289 288 288 288 287 285 284 289 292 290 287 286 284 285 283 288 284 279 271 271 270 274 267 242
167 171 177 176 178 189 207 221 238 248 253 271 279 286 289 283 285 291 294 294 294 293 290 290 288 287 291 294 295 291 289 287 286 279 276 277 275 279 273 283 269 280 277
173 159 176 189 198 217 239 235 222 236 273 276 288 282 291 293 298 300 300 299 302 301 300 298 294 292 293 292 293 294 291 288 287 278 263 263 274 261 279 286 284 264 268
177 173 179 195 221 228 214 207 228 263 275 281 285 293 296 307 314 310 309 309 311 310 308 305 302 298 294 296 296 293 290 291 284 277 267 267 276 283 293 263 270 271 262
141 167 181 193 203 221 234 251 260 273 280 286 295 309 317 327 329 328 322 323 325 324 323 321 319 316 313 313 313 310 302 293 285 279 272 269 274 283 272 270 279 275 244
159 168 187 206 228 266 282 285 289 294 289 297 321 337 338 337 337 334 332 331 330 328 326 325 326 325 323 320 317 318 312 300 289 280 276 273 266 283 275 264 266 264 276
195 207 228 265 301 299 298 297 301 303 292 314 328 333 341 340 334 331 331 331 331 328 325 323 322 319 316 312 310 309 309 309 303 293 284 283 291 321 305 267 276 269 273
258 275 296 304 300 301 303 314 312 311 320 330 329 330 331 327 327 328 329 328 325 322 318 315 313 312 312 310 310 306 299 298 297 298 292 298 303 291 278 266 268 272 277
271 278 293 295 295 360 16 19 13 355 331 328 321 323 319 325 324 326 322 316 313 310 309 307 308 305 303 304 303 300 300 297 295 295 290 297 296 292 273 269 269 270 266
258 279 285 299 334 14 45 42 24 4 346 340 344 330 327 335 328 330 322 317 313 314 310 309 307 305 305 304 301 297 295 295 298 293 291 298 293 291 284 278 276 269 267
243 256 273 269 285 14 46 62 53 5 343 351 353 344 344 347 333 331 327 323 322 317 312 314 311 311 312 310 312 312 308 302 298 295 293 297 291 287 286 282 274 273 270
252 211 248 267 230 181 87 43 27 7 359 345 347 343 343 339 335 334 330 326 326 324 324 329 325 325 328 322 315 314 313 313 310 303 300 300 294 288 285 284 279 275 273
234 245 275 243 219 180 159 89 23 349 357 346 342 331 326 324 328 326 319 319 316 319 323 328 333 333 329 328 327 320 315 313 311 309 306 306 299 291 286 282 281 278 276
218 239 261 260 241 218 246 294 314 330 327 324 317 317 317 318 319 321 322 320 320 321 330 335 335 331 329 326 324 322 319 315 312 311 306 305 302 297 293 288 282 279 277
221 234 256 269 237 255 281 294 303 310 310 311 312 308 310 315 319 321 321 320 317 319 326 326 326 324 322 319 313 310 307 304 306 307 305 303 300 299 298 296 289 283 278
241 238 236 266 289 270 284 288 289 302 303 306 307 301 302 313 317 317 320 326 325 322 323 323 323 321 318 316 315 315 314 313 307 298 296 299 298 296 296 293 290 289 284
239 242 258 208 278 284 281 281 280 287 297 305 307 313 309 310 312 320 317 317 314 313 315 315 313 311 304 300 301 304 307 310 310 310 309 303 301 296 291 292 290 286 284
258 254 294 283 289 280 284 274 276 285 292 302 301 290 304 307 305 313 306 307 305 307 310 308 302 303 298 296 296 297 297 296 297 300 302 303 303 302 301 297 293 290 284
232 248 248 270 282 279 289 287 281 285 295 305 295 289 297 295 300 301 303 301 303 306 305 305 294 293 289 289 289 289 291 290 286 286 289 292 296 296 297 300 296 294 290
222 239 252 264 262 270 281 283 288 299 302 287 288 291 293 293 292 295 295 297 311 305 302 298 293 288 288 286 287 288 288 287 290 293 292 293 289 295 293 287 289 290 287
241 250 250 262 268 278 277 283 289 291 282 278 280 286 290 290 290 300 303 302 302 297 298 292 287 287 286 286 289 292 293 289 288 289 284 280 285 284 288 279 277 278 281
265 257 263 276 293 290 282 285 284 282 287 292 292 293 298 300 304 301 298 301 296 296 296 293 293 291 289 288 291 292 289 284 285 285 283 280 274 276 272 269 262 268 266
261 277 293 298 298 296 286 279 279 287 294 293 305 309 305 303 296 301 297 294 297 299 300 296 292 290 288 285 286 286 282 282 285 284 279 276 272 264 265 275 271 258 254
283 302 311 303 294 290 286 286 292 292 297 302 307 307 308 308 312 307 303 302 300 301 299 297 296 292 291 292 291 288 285 280 271 268 272 271 266 262 256 258 263 265 229
297 308 301 293 302 298 294 296 295 302 302 306 309 309 309 310 304 303 302 301 302 303 302 301 300 299 297 295 293 286 286 282 282 279 271 266 267 261 253 248 253 260 242
Height
3171 3172 3174 3175 3175 3175 3176 3177 3178 3178 3179 3180 3181 3181 3180 3181 3181 3181 3178 3177 3175 3175 3176 3176 3176 3175 3173 3172 3173 3171 3171 3172 3172 3171 3170 3171 3173 3172 3173 3177 3170 3170 3169
3171 3171 3173 3174 3175 3176 3177 3177 3178 3179 3180 3181 3180 3180 3180 3178 3178 3178 3177 3175 3175 3173 3174 3173 3173 3173 3171 3170 3170 3170 3168 3169 3168 3169 3168 3168 3169 3174 3174 3172 3166 3166 3167
3170 3171 3173 3174 3176 3177 3177 3178 3179 3178 3179 3179 3179 3177 3178 3177 3176 3176 3176 3174 3172 3171 3170 3169 3170 3170 3168 3167 3166 3165 3165 3165 3164 3165 3165 3166 3166 3167 3168 3168 3166 3165 3167
3170 3171 3173 3175 3176 3177 3177 3177 3177 3178 3178 3178 3179 3177 3175 3175 3175 3174 3174 3173 3171 3170 3168 3167 3167 3167 3166 3165 3164 3162 3160 3160 3160 3161 3161 3163 3161 3161 3163 3167 3168 3166 3165
3170 3171 3173 3175 3176 3177 3177 3177 3178 3177 3177 3178 3177 3175 3175 3173 3171 3172 3172 3171 3169 3167 3166 3165 3165 3165 3164 3163 3161 3159 3157 3157 3156 3156 3160 3161 3158 3157 3156 3162 3167 3166 3162
3171 3172 3175 3175 3177 3177 3177 3176 3177 3178 3177 3176 3175 3173 3173 3171 3169 3170 3170 3169 3167 3166 3165 3164 3163 3163 3162 3160 3159 3157 3156 3155 3154 3154 3156 3156 3155 3152 3154 3160 3163 3161 3160
3172 3173 3174 3175 3176 3176 3177 3176 3176 3176 3176 3175 3174 3173 3170 3169 3169 3169 3169 3168 3166 3165 3164 3163 3162 3162 3160 3159 3157 3156 3155 3154 3152 3152 3152 3148 3141 3149 3151 3156 3160 3157 3154
3174 3173 3174 3175 3175 3175 3175 3175 3174 3173 3173 3172 3172 3171 3170 3170 3169 3169 3169 3168 3166 3165 3163 3162 3162 3161 3160 3158 3157 3155 3154 3153 3151 3151 3150 3145 3145 3144 3150 3155 3155 3152 3151
3173 3173 3174 3174 3174 3175 3173 3172 3171 3172 3172 3170 3173 3171 3170 3169 3168 3168 3168 3166 3164 3163 3162 3161 3160 3159 3158 3156 3155 3153 3152 3151 3150 3149 3145 3148 3146 3147 3148 3153 3150 3147 3149
3172 3173 3174 3174 3175 3174 3173 3171 3172 3171 3171 3170 3171 3171 3169 3167 3167 3166 3166 3164 3163 3161 3159 3158 3157 3155 3154 3153 3151 3150 3148 3147 3148 3147 3143 3146 3146 3147 3147 3148 3147 3144 3147
3172 3174 3174 3173 3173 3172 3171 3171 3171 3170 3171 3170 3171 3170 3168 3166 3164 3164 3164 3162 3160 3159 3156 3155 3153 3151 3149 3148 3146 3146 3145 3143 3143 3142 3141 3143 3144 3144 3144 3143 3142 3143 3144
3172 3174 3173 3173 3174 3172 3170 3172 3172 3169 3170 3169 3170 3169 3167 3165 3165 3163 3162 3161 3159 3156 3154 3153 3150 3148 3147 3145 3141 3140 3139 3138 3138 3136 3134 3138 3138 3139 3139 3139 3140 3140 3140
3172 3173 3173 3172 3172 3173 3169 3171 3172 3171 3169 3170 3171 3170 3169 3166 3163 3161 3159 3157 3154 3152 3148 3147 3145 3142 3141 3140 3139 3136 3134 3133 3132 3131 3129 3132 3131 3131 3133 3134 3135 3136 3136
3173 3171 3171 3171 3171 3172 3171 3171 3172 3172 3170 3170 3169 3169 3167 3165 3163 3161 3159 3157 3154 3150 3148 3145 3143 3141 3139 3137 3135 3133 3132 3130 3128 3125 3122 3125 3126 3126 3127 3128 3128 3130 3130
3174 3169 3166 3170 3168 3170 3169 3170 3171 3170 3170 3168 3168 3167 3165 3163 3161 3159 3157 3155 3152 3149 3145 3143 3140 3138 3135 3133 3131 3130 3129 3127 3125 3124 3119 3118 3118 3119 3119 3120 3121 3120 3122
3172 3167 3163 3167 3169 3169 3166 3169 3169 3169 3168 3167 3164 3163 3162 3160 3159 3156 3154 3151 3149 3146 3143 3140 3137 3134 3132 3129 3127 3124 3123 3123 3120 3117 3115 3113 3114 3113 3113 3112 3112 3113 3113
3170 3170 3171 3160 3167 3164 3164 3167 3166 3166 3165 3163 3161 3159 3158 3156 3154 3152 3150 3147 3144 3141 3138 3135 3132 3129 3125 3123 3120 3117 3114 3113 3112 3112 3111 3107 3106 3106 3105 3106 3105 3105 3106
3171 3170 3153 3134 3164 3161 3161 3164 3164 3163 3162 3160 3157 3154 3151 3150 3148 3147 3145 3142 3139 3136 3133 3130 3128 3125 3122 3118 3116 3113 3109 3106 3103 3100 3098 3099 3097 3097 3098 3097 3097 3098 3098
3169 3169 3165 3154 3159 3157 3161 3161 3161 3159 3159 3156 3155 3151 3149 3146 3143 3141 3138 3136 3133 3131 3128 3124 3120 3118 3114 3111 3109 3107 3105 3103 3100 3097 3093 3091 3089 3085 3082 3087 3087 3088 3089
3169 3166 3165 3157 3156 3154 3156 3159 3157 3155 3154 3152 3150 3145 3143 3142 3138 3133 3131 3128 3125 3122 3119 3115 3112 3109 3106 3103 3101 3098 3097 3097 3095 3092 3089 3087 3082 3080 3079 3072 3075 3076 3077
3163 3163 3162 3157 3157 3156 3155 3154 3154 3153 3150 3146 3145 3139 3136 3134 3131 3128 3124 3120 3118 3113 3109 3106 3103 3099 3097 3096 3091 3088 3086 3085 3083 3083 3082 3079 3076 3074 3070 3071 3068 3065 3068
3160 3157 3159 3156 3156 3155 3151 3150 3151 3147 3144 3140 3136 3132 3130 3124 3120 3119 3117 3110 3108 3103 3101 3098 3094 3090 3087 3085 3082 3079 3072 3071 3073 3073 3073 3072 3070 3068 3062 3057 3057 3058 3055
3158 3157 3155 3154 3155 3154 3148 3146 3143 3140 3138 3134 3133 3128 3125 3120 3114 3108 3105 3101 3097 3095 3092 3088 3084 3081 3075 3074 3073 3069 3063 3058 3056 3059 3060 3061 3063 3060 3053 3051 3046 3047 3045
3155 3154 3153 3151 3151 3150 3145 3141 3138 3135 3132 3128 3124 3117 3113 3110 3104 3100 3098 3092 3089 3083 3081 3076 3072 3068 3065 3061 3059 3056 3054 3050 3045 3039 3045 3046 3047 3049 3046 3044 3044 3037 3037
3152 3151 3149 3145 3144 3142 3140 3137 3134 3129 3124 3119 3114 3108 3103 3099 3094 3091 3087 3083 3078 3074 3069 3065 3059 3054 3051 3047 3043 3039 3039 3036 3035 3028 3023 3024 3029 3033 3035 3031 3029 3029 3025
3148 3146 3145 3142 3137 3135 3132 3128 3125 3120 3115 3111 3104 3098 3094 3090 3085 3081 3077 3071 3066 3060 3055 3050 3044 3039 3034 3031 3028 3025 3022 3019 3017 3014 3010 3010 3006 3011 3016 3017 3017 3017 3010